Weather History for Clines Corner, NM

Change the Weather History Date:

Tuesday, March 12, 2013

  Actual Average (KSAF) Record (KSAF)
Temperature  
Mean Temperature 40 °F -  
Max Temperature 52 °F 0 °F 70 °F (2005)
Min Temperature 30 °F - 19 °F (1998)
Degree Days  
Heating Degree Days 24    
Moisture  
Dew Point 23 °F    
Average Humidity 52    
Maximum Humidity 67    
Minimum Humidity 35    
Precipitation  
Precipitation 0.00 in - - ()
Sea Level Pressure  
Sea Level Pressure 30.15 in    
Wind  
Wind Speed 10 mph (SSE)    
Max Wind Speed 17 mph    
Max Gust Speed 18 mph    
Visibility 10 miles    
Events      
Averages and records for this station are not official NWS values.
T = Trace of Precipitation, MM = Missing Value Source: NWS Daily Summary

Daily Weather History Graph

Daily Weather History Graph

Search for Another Location

Airport:

Trip Planner

Search our weather history database for the weather conditions in past years. The results will help you decide how hot, cold, wet, or windy it might be!

Date:

Astronomy

Mar. 12, 2013 Rise Set
Actual Time 7:16 AM MDT 7:08 PM MDT
Civil Twilight 6:51 AM MDT 7:33 PM MDT
Nautical Twilight 6:22 AM MDT 8:02 PM MDT
Astronomical Twilight 5:52 AM MDT 8:32 PM MDT
Moon 7:28 AM MDT (3/12) 8:20 PM MDT (3/12)
Length of Visible Light 12h 41m
Length of Day
11h 51m
New Moon, 1% of the Moon is Illuminated
Mar 12
New Moon
Mar 19
First Quarter
Mar 27
Full
Apr 2
Last Quarter
Apr 10
New

Hourly Weather History & Observations

Time (MDT) Temp. Windchill Dew Point Humidity Pressure Visibility Wind Dir Wind Speed Gust Speed Precip Events Conditions
12:53 AM 37.0 °F 28.9 °F 19.0 °F 48% 30.01 in 10.0 mi NW 12.7 mph - N/A   Clear
1:53 AM 33.1 °F 24.4 °F 21.0 °F 61% 30.02 in 10.0 mi WNW 11.5 mph - N/A   Clear
2:53 AM 33.1 °F 26.1 °F 19.9 °F 59% 30.01 in 10.0 mi West 8.1 mph - N/A   Clear
3:53 AM 32.0 °F 22.5 °F 21.9 °F 66% 30.01 in 10.0 mi West 12.7 mph - N/A   Clear
4:53 AM 34.0 °F 23.4 °F 21.0 °F 59% 30.01 in 10.0 mi WNW 17.3 mph - N/A   Clear
5:53 AM 30.9 °F 26.2 °F 21.0 °F 67% 30.06 in 10.0 mi East 4.6 mph - N/A   Clear
6:53 AM 30.9 °F 26.2 °F 19.9 °F 64% 30.11 in 10.0 mi East 4.6 mph - N/A   Clear
7:53 AM 30.9 °F 25.2 °F 19.9 °F 64% 30.15 in 10.0 mi East 5.8 mph - N/A   Clear
8:53 AM 35.1 °F 28.6 °F 19.9 °F 54% 30.17 in 10.0 mi ESE 8.1 mph - N/A   Clear
9:53 AM 37.9 °F 32.7 °F 21.9 °F 53% 30.19 in 10.0 mi ESE 6.9 mph - N/A   Clear
10:53 AM 41.0 °F 34.7 °F 24.1 °F 51% 30.18 in 10.0 mi ESE 10.4 mph - N/A   Clear
11:53 AM 45.0 °F 41.2 °F 26.1 °F 48% 30.19 in 10.0 mi SSE 6.9 mph 16.1 mph N/A   Clear
12:53 PM 46.0 °F 44.8 °F 26.1 °F 46% 30.19 in 10.0 mi Variable 3.5 mph - N/A   Clear
1:53 PM 48.0 °F - 27.0 °F 44% 30.18 in 10.0 mi SSE 6.9 mph 17.3 mph N/A   Clear
2:53 PM 48.9 °F - 25.0 °F 39% 30.17 in 10.0 mi SSE 9.2 mph - N/A   Clear
3:53 PM 51.1 °F - 25.0 °F 36% 30.14 in 10.0 mi South 11.5 mph 18.4 mph N/A   Clear
4:53 PM 51.1 °F - 24.1 °F 35% 30.14 in 10.0 mi SSW 9.2 mph - N/A   Clear
5:53 PM 51.1 °F - 24.1 °F 35% 30.16 in 10.0 mi South 10.4 mph - N/A   Clear
6:53 PM 46.0 °F 41.4 °F 25.0 °F 44% 30.19 in 10.0 mi SSE 9.2 mph - N/A   Clear
7:53 PM 41.0 °F 35.8 °F 25.0 °F 53% 30.26 in 10.0 mi SSE 8.1 mph - N/A   Clear
8:53 PM 39.0 °F 33.4 °F 24.1 °F 55% 30.26 in 10.0 mi SE 8.1 mph - N/A   Clear
9:53 PM 37.9 °F 28.9 °F 24.1 °F 57% 30.26 in 10.0 mi South 16.1 mph - N/A   Clear
10:53 PM 37.0 °F 28.5 °F 24.1 °F 59% 30.26 in 10.0 mi South 13.8 mph - N/A   Clear
11:53 PM 36.0 °F 27.1 °F 23.0 °F 59% 30.25 in 10.0 mi South 13.8 mph - N/A   Clear